User: anonymous   Login
Location: Baix
(44.7118°N, 4.7648°E)
Time: 00:39:12
(UTC+00:00)
Language:

Cosmos 2322 Rocket - Orbit

View from above orbital plane
View from above orbital plane
View from above satellite
View from above satellite

Ground track
Ground track

The orbit data is extracted from the following two-line orbital elements,

1 23705U 95058B   21340.37103667  .00000310  00000-0  18380-3 0  9994
2 23705  71.0217 202.4159 0013748 320.7673  39.2452 14.15157671347930
Epoch (UTC): 06 December 2021 08:54:17
Eccentricity: 0.0013748
inclination: 71.0217°
perigee height: 832 km
apogee height: 852 km
right ascension of ascending node: 202.4159°
argument of perigee: 320.7673°
revolutions per day: 14.15157671
mean anomaly at epoch: 39.2452°
orbit number at epoch: 34793

The dashed part of the orbit path shows where the satellite is in the earth's shadow,  

DLR